Location: Newark
(24.4500°N, 54.3833°E)
Time: 14:51:17
(UTC+00:00)

N. Korean satellite - Visible Passes

Search period start: 19 September 2019 00:00
Search period end: 29 September 2019 00:00
Orbit: 455 x 509 km, 97.2° (Epoch: 18 September)

Date Brightness Start Highest point End Pass type
(mag) Time Alt. Az. Time Alt. Az. Time Alt. Az.
21 Sep 9.6 01:32:05 10° NE 01:34:40 20° E 01:37:16 10° SSE visible
22 Sep 10.3 14:41:30 10° WSW 14:42:57 12° W 14:44:25 10° WNW visible
25 Sep 9.8 01:24:58 10° ENE 01:27:08 16° E 01:29:18 10° SE visible
26 Sep 10.0 14:33:16 10° SW 14:35:25 15° W 14:37:33 10° WNW visible
28 Sep 8.9 01:41:46 10° NE 01:44:50 29° E 01:47:55 10° SSE visible
